CW4588 Seinajoki FI current weather conditions

sailwx.info

Wind from 226 at 2 knots

Air temperature 11.7° C
Dewpoint 11.7° C

Last reported at 2020-Aug-05 04:00 UTC.
Time now 2020-Aug-05 04:39 UTC

Location: N 62°47' E 022°49'.
View on Google Maps.

See reports from other nearby stations

  
Tides and Currents Weather Stations Pressure Air Temp Water Temp Dewpoint Dewpoint Depression Visibility Wind Speed Wind Dir Waves Ship Positions
date/time (UTC)wind fromknots sea level pressurealtimeterstation pressurevisibilityair tempwater tempwave heightnotes
2020-Aug-05 04:00 226 2 11.7
2020-Aug-05 03:50 244 1 11.7
2020-Aug-05 03:40 246 11.1
2020-Aug-05 03:30 232 11.1
2020-Aug-05 03:20 232 10.6
2020-Aug-05 03:10 217 10.6
2020-Aug-05 03:00 217 10.0
2020-Aug-05 02:50 213 10.0
2020-Aug-05 02:40 213 10.0
2020-Aug-05 02:30 186 10.0
2020-Aug-05 02:20 239 10.0
2020-Aug-05 02:10 234 10.0
2020-Aug-05 02:01 234 10.0
2020-Aug-05 01:50 234 10.0
2020-Aug-05 01:40 234 10.6
2020-Aug-05 01:30 224 10.6
2020-Aug-05 01:20 232 0 10.6
2020-Aug-05 01:10 213 2 10.6
2020-Aug-05 01:00 202 1 10.6
2020-Aug-05 00:50 244 1 10.6
2020-Aug-05 00:40 239 1 10.6
2020-Aug-05 00:31 223 1 11.1
2020-Aug-05 00:20 215 1 11.1
2020-Aug-05 00:10 237 1 11.1
2020-Aug-05 00:00 208 0 11.1
2020-Aug-04 23:50 206 11.1
2020-Aug-04 23:40 205 11.1
2020-Aug-04 23:30 205 0 11.1
2020-Aug-04 23:20 200 0 11.1
2020-Aug-04 23:10 213 11.1
2020-Aug-04 23:00 234 0 11.7
2020-Aug-04 22:50 248 0 11.7
2020-Aug-04 22:40 219 1 11.7
2020-Aug-04 22:30 206 1 11.7
2020-Aug-04 22:20 213 0 11.7
2020-Aug-04 22:10 210 1 12.2
2020-Aug-04 22:00 223 1 12.2
2020-Aug-04 21:50 219 1 12.2
2020-Aug-04 21:40 217 1 11.7
2020-Aug-04 21:30 205 1 11.7
2020-Aug-04 21:20 195 11.7
2020-Aug-04 21:10 202 1 11.7
2020-Aug-04 21:00 206 1 11.7
2020-Aug-04 20:50 193 12.2
2020-Aug-04 20:40 209 12.2
2020-Aug-04 20:30 209 12.2
2020-Aug-04 20:20 209 12.2
2020-Aug-04 20:10 208 12.2
2020-Aug-04 20:00 208 12.8
2020-Aug-04 19:50 209 12.8
2020-Aug-04 19:40 209 13.3
2020-Aug-04 19:30 209 13.9
2020-Aug-04 19:20 209 13.9
2020-Aug-04 19:10 209 14.4
2020-Aug-04 19:00 209 14.4
2020-Aug-04 18:50 209 14.4
2020-Aug-04 18:40 209 0 15.0
2020-Aug-04 18:30 208 0 15.0
2020-Aug-04 18:20 205 15.0
2020-Aug-04 18:10 203 0 15.0
2020-Aug-04 18:00 203 0 15.6
2020-Aug-04 17:50 203 1 15.6
2020-Aug-04 17:40 203 1 15.6
2020-Aug-04 17:31 205 0 15.6
2020-Aug-04 17:20 206 0 15.6
2020-Aug-04 17:10 206 0 15.6
2020-Aug-04 17:00 205 0 15.6
2020-Aug-04 16:50 233 0 16.1
2020-Aug-04 16:40 226 1 16.1
2020-Aug-04 16:30 224 2 16.1
2020-Aug-04 16:20 237 2 16.7
2020-Aug-04 16:10 203 3 16.7
2020-Aug-04 16:00 244 2 16.7
2020-Aug-04 15:50 271 4 16.7
2020-Aug-04 15:40 246 2 17.2
2020-Aug-04 15:31 213 2 17.2
2020-Aug-04 15:20 244 3 17.8
2020-Aug-04 15:10 240 4 17.8
2020-Aug-04 15:01 284 2 17.8
2020-Aug-04 14:50 241 2 18.3
2020-Aug-04 14:40 251 3 18.3
2020-Aug-04 14:31 215 4 18.3
2020-Aug-04 14:20 224 2 18.9
2020-Aug-04 14:11 247 3 18.9
2020-Aug-04 14:01 265 2 18.9
2020-Aug-04 13:50 233 3 18.3
2020-Aug-04 13:40 233 4 18.3
2020-Aug-04 13:31 188 4 17.8
2020-Aug-04 13:20 224 4 18.3
2020-Aug-04 13:10 200 4 18.9
2020-Aug-04 13:00 229 2 18.3
2020-Aug-04 12:51 193 3 18.3
2020-Aug-04 12:41 220 3 18.9
2020-Aug-04 12:32 198 5 18.9
2020-Aug-04 12:20 247 2 18.3
2020-Aug-04 12:12 270 3 18.9
2020-Aug-04 12:01 237 2 18.9
2020-Aug-04 11:50 220 3 19.4
2020-Aug-04 11:40 154 5 19.4
2020-Aug-04 11:31 198 5 20.0
2020-Aug-04 11:20 215 4 20.0
2020-Aug-04 11:11 212 5 20.0
2020-Aug-04 10:50 191 4 20.0
2020-Aug-04 10:41 215 5 20.6
2020-Aug-04 10:31 202 6 20.6
2020-Aug-04 10:20 215 4 20.6
2020-Aug-04 10:10 199 4 20.6
2020-Aug-04 10:01 209 5 19.4
2020-Aug-04 09:52 254 3 20.0
2020-Aug-04 09:40 212 5 19.4
2020-Aug-04 09:34 219 3 19.4
2020-Aug-04 09:22 202 1 18.9
2020-Aug-04 08:32 256 1 19.4
2020-Aug-04 08:11 147 2 19.4
2020-Aug-04 08:01 150 2 19.4
2020-Aug-04 07:41 164 2 18.9
2020-Aug-04 07:30 208 3 18.3
2020-Aug-04 07:20 208 4 18.3
2020-Aug-04 07:10 229 2 17.8
2020-Aug-04 07:00 196 3 17.8
2020-Aug-04 06:50 220 4 17.8
2020-Aug-04 06:40 226 3 18.3
2020-Aug-04 06:31 191 2 17.8
2020-Aug-04 06:21 195 3 17.8
2020-Aug-04 06:10 157 3 17.2
2020-Aug-04 06:00 200 3 17.2
2020-Aug-04 05:51 237 3 16.7
2020-Aug-04 05:40 209 3 16.1
2020-Aug-04 05:30 161 3 15.6
2020-Aug-04 05:20 152 1 15.0
2020-Aug-04 05:10 226 3 14.4
2020-Aug-04 05:00 176 1 13.9
2020-Aug-04 04:50 199 3 13.9
2020-Aug-04 04:40 176 2 13.3
2020-Aug-04 04:30 236 1 12.8
2020-Aug-04 04:20 158 1 12.8
2020-Aug-04 04:10 186 2 12.8
2020-Aug-04 04:00 168 2 12.2
2020-Aug-04 03:50 191 2 12.2
2020-Aug-04 03:40 172 1 12.2
2020-Aug-04 03:31 155 2 12.2
2020-Aug-04 03:20 168 0 11.7
2020-Aug-04 03:10 174 2 11.7
2020-Aug-04 03:01 209 1 11.7
2020-Aug-04 02:50 217 1 11.7
2020-Aug-04 02:40 195 1 11.7
2020-Aug-04 02:30 175 1 11.7
2020-Aug-04 02:20 220 1 11.7
2020-Aug-04 02:10 205 1 11.7
2020-Aug-04 02:00 188 1 11.7
2020-Aug-04 01:50 209 2 11.7
2020-Aug-04 01:41 133 2 11.7
2020-Aug-04 01:30 234 0 11.7
2020-Aug-04 01:20 191 1 11.7
2020-Aug-04 01:10 191 2 11.7
2020-Aug-04 01:00 160 2 11.7
2020-Aug-04 00:50 182 2 11.7
2020-Aug-04 00:40 227 1 11.7
2020-Aug-04 00:30 198 11.7
2020-Aug-04 00:20 236 0 11.7
2020-Aug-04 00:10 184 1 12.2
2020-Aug-04 00:00 172 1 11.7
2020-Aug-03 23:51 141 11.7
2020-Aug-03 23:40 202 11.7
2020-Aug-03 23:31 154 11.7
2020-Aug-03 23:20 193 11.7
2020-Aug-03 23:10 160 11.7
2020-Aug-03 23:00 145 11.7
2020-Aug-03 22:50 145 11.1
2020-Aug-03 22:40 133 11.7
2020-Aug-03 22:30 117 11.7
2020-Aug-03 22:20 138 11.7
2020-Aug-03 22:10 184 11.7
2020-Aug-03 22:01 171 11.7
2020-Aug-03 21:50 171 11.7
2020-Aug-03 21:40 174 11.7
2020-Aug-03 21:31 172 11.7
2020-Aug-03 21:20 164 0 11.7
2020-Aug-03 21:10 179 0 11.7
2020-Aug-03 21:01 181 0 11.7
2020-Aug-03 20:50 200 11.7
2020-Aug-03 20:40 200 0 11.7
2020-Aug-03 20:30 200 12.2
2020-Aug-03 20:21 200 12.2
2020-Aug-03 20:10 200 12.8
2020-Aug-03 20:00 200 12.8
2020-Aug-03 19:50 200 13.3
2020-Aug-03 19:40 200 13.3
2020-Aug-03 19:30 200 0 13.9
2020-Aug-03 19:20 200 13.9
2020-Aug-03 19:10 200 0 13.9
2020-Aug-03 19:00 185 1 13.9
2020-Aug-03 18:50 192 0 14.4
2020-Aug-03 18:40 209 1 14.4
2020-Aug-03 18:30 189 1 14.4
2020-Aug-03 18:20 213 2 15.0
2020-Aug-03 18:10 202 1 15.0
2020-Aug-03 18:00 206 1 15.6
2020-Aug-03 17:50 254 0 15.6
2020-Aug-03 17:40 220 0 16.1
2020-Aug-03 17:30 274 1 16.1
2020-Aug-03 17:20 171 2 16.1
2020-Aug-03 17:10 217 1 16.7
2020-Aug-03 17:00 233 3 16.7
2020-Aug-03 16:51 227 3 17.2
2020-Aug-03 16:40 241 4 17.2
2020-Aug-03 16:30 206 3 17.8
2020-Aug-03 16:20 208 1 18.3
2020-Aug-03 16:10 227 1 18.3
2020-Aug-03 16:01 217 1 18.3
2020-Aug-03 15:50 223 0 18.3
2020-Aug-03 15:40 182 0 17.8
2020-Aug-03 15:30 217 0 17.8
2020-Aug-03 15:20 217 0 17.8
2020-Aug-03 15:10 232 17.2
2020-Aug-03 15:00 233 17.2
2020-Aug-03 14:50 233 16.7
2020-Aug-03 14:40 233 16.7
2020-Aug-03 14:31 233 16.7
2020-Aug-03 14:20 233 16.7
2020-Aug-03 14:10 250 0 16.7
2020-Aug-03 14:00 250 2 16.7
2020-Aug-03 13:51 233 3 17.2
2020-Aug-03 13:42 241 2 17.8
2020-Aug-03 13:31 209 2 18.9
2020-Aug-03 13:21 200 0 20.0
2020-Aug-03 13:10 168 20.0
2020-Aug-03 13:00 168 20.0
2020-Aug-03 12:50 168 0 20.6
2020-Aug-03 12:43 168 20.6
2020-Aug-03 12:33 169 20.0
2020-Aug-03 12:22 169 19.4
2020-Aug-03 12:10 169 18.9
2020-Aug-03 12:01 169 18.9
2020-Aug-03 11:50 169 18.9
2020-Aug-03 11:40 169 0 18.9
2020-Aug-03 11:34 169 0 18.9
2020-Aug-03 11:20 168 0 18.9
2020-Aug-03 11:12 168 0 18.3
2020-Aug-03 11:01 169 0 18.3
2020-Aug-03 10:50 169 0 17.8
2020-Aug-03 10:42 169 0 18.3
2020-Aug-03 10:31 169 18.3
2020-Aug-03 10:21 169 0 18.3
2020-Aug-03 10:11 169 0 18.3
2020-Aug-03 10:05 171 0 18.3
2020-Aug-03 09:50 181 0 18.3
2020-Aug-03 09:46 181 17.8
2020-Aug-03 09:30 181 17.8
2020-Aug-03 09:24 181 17.8
2020-Aug-03 09:14 181 17.8
2020-Aug-03 09:04 181 17.8
2020-Aug-03 08:54 181 17.8
2020-Aug-03 08:31 182 2 17.8
2020-Aug-03 08:21 186 0 17.8
2020-Aug-03 08:10 188 0 17.8
2020-Aug-03 08:00 188 17.8
2020-Aug-03 07:50 188 0 17.2
2020-Aug-03 07:41 188 17.2
2020-Aug-03 07:30 188 0 17.2
2020-Aug-03 07:20 188 0 16.7
2020-Aug-03 07:10 188 0 16.7
2020-Aug-03 07:00 188 16.7
2020-Aug-03 06:50 199 16.7
2020-Aug-03 06:40 199 16.1
2020-Aug-03 06:30 199 16.1
2020-Aug-03 06:20 199 16.1
2020-Aug-03 06:10 199 16.1
2020-Aug-03 06:00 199 16.1
2020-Aug-03 05:50 199 16.1
2020-Aug-03 05:40 199 15.6
2020-Aug-03 05:30 199 15.6
2020-Aug-03 05:20 199 15.6
2020-Aug-03 05:10 202 15.6
2020-Aug-03 05:00 200 15.6
2020-Aug-03 04:50 202 15.6
2020-Aug-03 04:40 202 15.6
2020-Aug-03 04:30 224 15.6
2020-Aug-03 04:20 224 15.0
2020-Aug-03 04:10 224 15.0
2020-Aug-03 04:00 224 15.0